Flag for Germany Weather past 2 weeks in Rheinfelden (Baden), Baden-Württemberg, Germany

Now
61 °F

Passing clouds.


Feels Like: 61 °F
Forecast: 55 / 74 °F
Wind: 6 mph from North

Location: Bale-Mulhouse

Current Time: Jul 31, 2015 at 10:22:21 AM

Latest Report: Jul 31, 2015 at 10:00 AM


Visibility: N/A

Pressure: 30.04 "Hg

Humidity: 59%

Dew point: 46 °F

Location of Rheinfelden (Baden)Location

Historic Weather in Rheinfelden (Baden) — Graph

°F

Rheinfelden (Baden) temperature yesterday

Maximum temperature yesterday: 73 °F (at 2:30 PM)
Minimum temperature yesterday: 48 °F (at 2:30 AM)
Average temperature yesterday: 61 °F

Past Weeks' High & Low Weather Summary

 TemperatureHumidityPressure
High97 °F (Jul 17, 3:00 PM)100% (Jul 26, 5:00 AM)30.15 "Hg (Jul 26, 5:00 AM)
Low46 °F (Jul 26, 6:00 AM)22% (Jul 17, 4:30 PM)29.71 "Hg (Jul 24, 5:30 PM)
Average71 °F64%29.96 "Hg
* Reported Jul 16 9:00 AM — Jul 31 9:17 AM, Rheinfelden (Baden), Weather by CustomWeather, © 2015

Note: Actual official high and low records may vary slightly from our data, if they occured in-between our weather recording intervals... More about our weather records

Advertising

Rheinfelden (Baden) weather history for previous 24 hours

 ConditionsComfort  
Time TempWeatherWind HumidityBarometerVisibility
9:17 AM
Fri, Jul 31
57 °FPassing clouds.6 mph67%30.07 "HgN/A
8:30 AM54 °FSunny.3 mph82%30.07 "Hg10 mi
8:00 AM52 °FSunny.3 mph88%30.07 "Hg10 mi
7:30 AM50 °FSunny.No wind88%30.07 "Hg10 mi
7:00 AM46 °FClear.2 mph93%30.07 "Hg10 mi
6:30 AM46 °FClear.2 mph87%30.07 "Hg10 mi
6:00 AM46 °FClear.3 mph87%30.07 "Hg10 mi
5:30 AM48 °FClear.3 mph87%30.07 "Hg10 mi
5:00 AM48 °FClear.5 mph87%30.07 "Hg10 mi
4:30 AM50 °FClear.3 mph88%30.07 "Hg10 mi
4:00 AM48 °FClear.6 mph87%30.07 "Hg10 mi
3:30 AM50 °FClear.6 mph82%30.07 "Hg10 mi
3:00 AM52 °FClear.6 mph82%30.07 "Hg10 mi
2:30 AM50 °FPassing clouds.5 mph88%30.07 "HgN/A
2:00 AM52 °FClear.5 mph82%30.07 "Hg10 mi
1:30 AM52 °FClear.7 mph82%30.07 "Hg10 mi
1:00 AM54 °FClear.6 mph77%30.07 "Hg10 mi
12:30 AM57 °FClear.8 mph67%30.07 "Hg10 mi
12:00 AM57 °FClear.8 mph67%30.07 "Hg10 mi
11:30 PM
Thu, Jul 30
52 °FClear.3 mph88%30.07 "Hg10 mi
11:00 PM54 °FClear.2 mph82%30.07 "Hg10 mi
10:30 PM55 °FClear.5 mph82%30.04 "Hg10 mi
10:00 PM57 °FSunny.3 mph72%30.04 "Hg10 mi
9:30 PM61 °FPassing clouds.3 mph63%30.04 "HgN/A
9:00 PM64 °FSunny.5 mph52%30.01 "Hg10 mi
8:30 PM66 °FPassing clouds.5 mph49%30.01 "HgN/A
8:00 PM70 °FSunny.3 mph40%30.01 "Hg10 mi
7:30 PM70 °FPassing clouds.8 mph35%30.01 "HgN/A
7:00 PM72 °FPassing clouds.9 mph33%30.01 "HgN/A
6:30 PM72 °FPassing clouds.9 mph33%30.01 "HgN/A
6:00 PM73 °FPassing clouds.9 mph31%30.01 "HgN/A
5:30 PM73 °FPassing clouds.9 mph33%30.01 "HgN/A
5:00 PM72 °FPassing clouds.9 mph36%30.01 "HgN/A
4:30 PM73 °FPassing clouds.10 mph31%30.01 "HgN/A
4:00 PM73 °FPassing clouds.8 mph36%30.01 "HgN/A
3:00 PM73 °FPassing clouds.8 mph36%30.01 "HgN/A
2:30 PM73 °FPartly sunny.7 mph31%30.01 "HgN/A
2:00 PM72 °FScattered clouds.8 mph33%30.01 "HgN/A
1:30 PM72 °FScattered clouds.7 mph33%30.01 "HgN/A
1:00 PM70 °FScattered clouds.6 mph35%30.01 "HgN/A
12:30 PM68 °FPartly sunny.6 mph38%30.04 "HgN/A
12:00 PM70 °FPartly sunny.5 mph38%30.01 "HgN/A
11:30 AM70 °FScattered clouds.3 mph40%30.04 "HgN/A
11:00 AM66 °FPassing clouds.3 mph56%30.04 "HgN/A
10:30 AM66 °FPassing clouds.2 mph60%30.04 "HgN/A
10:00 AM63 °FPassing clouds.3 mph64%30.04 "HgN/A
Weather by CustomWeather, © 2015

See weather overviewHow to use our weather pages